Gaithersburg, MD

11:45 PM EST on January 22, 2018 (GMT -0500)
Montgomery County

Weather History for KGAI - November, 2013

Change the Weather History Date:

Sunday, November 10, 2013

  Actual Average (KCGS) Record (KCGS)
Temperature  
Mean Temperature 46 °F -  
Max Temperature 59 °F 61 °F 77 °F (1986)
Min Temperature 32 °F 40 °F 24 °F (1954)
Degree Days  
Heating Degree Days 20    
Moisture  
Dew Point 27 °F    
Average Humidity 51    
Maximum Humidity 81    
Minimum Humidity 31    
Precipitation  
Precipitation 0.00 in - - ()
Sea Level Pressure  
Sea Level Pressure 30.09 in    
Wind  
Wind Speed 5 mph (WNW)    
Max Wind Speed 26 mph    
Max Gust Speed 31 mph    
Visibility 10 miles    
Events      
Averages and records for this station are not official NWS values.
T = Trace of Precipitation, MM = Missing Value Source: NWS Daily Summary

Daily Weather History Graph

Daily Weather History Graph

Search for Another Location

Airport or City:

Trip Planner

Search our weather history database for the weather conditions in past years. The results will help you decide how hot, cold, wet, or windy it might be!

Date:

Astronomy

Nov. 10, 2013 Rise Set
Actual Time 6:46 AM EST 4:58 PM EST
Civil Twilight 6:18 AM EST 5:26 PM EST
Nautical Twilight 5:46 AM EST 5:58 PM EST
Astronomical Twilight 5:14 AM EST 6:30 PM EST
Moon 12:59 PM EST (11/10) No Moon Set
Length of Visible Light 11h 08m
Length of Day
10h 11m
First Quarter, 55% of the Moon is Illuminated
Nov 10
First Quarter
Nov 17
Full
Nov 25
Last Quarter
Dec 2
New
Dec 9
First Quarter

Hourly Weather History & Observations

Time (EST) Temp. Windchill Dew Point Humidity Pressure Visibility Wind Dir Wind Speed Gust Speed Precip Events Conditions
12:15 AM 44.6 °F 43.1 °F 26.6 °F 49% 30.06 in 10.0 mi SSW 3.5 mph - N/A   Clear
12:35 AM 44.6 °F - 26.6 °F 49% 30.05 in 10.0 mi Calm Calm - N/A   Clear
12:55 AM 42.8 °F - 26.6 °F 53% 30.05 in 10.0 mi Calm Calm - N/A   Clear
1:15 AM 41.0 °F - 24.8 °F 53% 30.04 in 10.0 mi Calm Calm - N/A   Clear
1:35 AM 39.2 °F - 26.6 °F 61% 30.04 in 10.0 mi Calm Calm - N/A   Clear
1:55 AM 39.2 °F - 24.8 °F 56% 30.04 in 10.0 mi Calm Calm - N/A   Clear
2:15 AM 39.2 °F - 26.6 °F 61% 30.04 in 10.0 mi Calm Calm - N/A   Clear
2:35 AM 37.4 °F - 28.4 °F 70% 30.03 in 10.0 mi Calm Calm - N/A   Clear
2:55 AM 37.4 °F - 26.6 °F 65% 30.03 in 10.0 mi Calm Calm - N/A   Clear
3:15 AM 35.6 °F - 28.4 °F 75% 30.03 in 10.0 mi Calm Calm - N/A   Clear
3:35 AM 37.4 °F - 26.6 °F 65% 30.03 in 10.0 mi Calm Calm - N/A   Clear
3:55 AM 33.8 °F - 28.4 °F 81% 30.03 in 10.0 mi Calm Calm - N/A   Clear
4:15 AM 35.6 °F - 26.6 °F 70% 30.03 in 10.0 mi Calm Calm - N/A   Clear
4:35 AM 33.8 °F - 26.6 °F 75% 30.03 in 10.0 mi Calm Calm - N/A   Clear
4:55 AM 33.8 °F - 26.6 °F 75% 30.03 in 10.0 mi Calm Calm - N/A   Clear
5:15 AM 33.8 °F - 26.6 °F 75% 30.03 in 10.0 mi Calm Calm - N/A   Clear
5:35 AM 33.8 °F - 26.6 °F 75% 30.04 in 10.0 mi Calm Calm - N/A   Clear
5:55 AM 32.0 °F - 26.6 °F 80% 30.04 in 10.0 mi Calm Calm - N/A   Clear
6:15 AM 33.8 °F - 26.6 °F 75% 30.03 in 10.0 mi Calm Calm - N/A   Clear
6:35 AM 33.8 °F - 26.6 °F 75% 30.03 in 10.0 mi Calm Calm - N/A   Clear
6:55 AM 33.8 °F - 26.6 °F 75% 30.03 in 10.0 mi Calm Calm - N/A   Clear
7:15 AM 33.8 °F - 26.6 °F 75% 30.04 in 10.0 mi Calm Calm - N/A   Clear
7:35 AM 33.8 °F - 28.4 °F 81% 30.04 in 10.0 mi Calm Calm - N/A   Clear
7:55 AM 35.6 °F - 30.2 °F 81% 30.05 in 10.0 mi Calm Calm - N/A   Clear
8:15 AM 42.8 °F - 32.0 °F 66% 30.04 in 10.0 mi Calm Calm - N/A   Clear
8:35 AM 46.4 °F 44.3 °F 30.2 °F 53% 30.04 in 10.0 mi West 4.6 mph - N/A   Clear
8:55 AM 48.2 °F - 30.2 °F 50% 30.04 in 10.0 mi West 3.5 mph - N/A   Clear
9:15 AM 51.8 °F - 30.2 °F 44% 30.02 in 10.0 mi WSW 6.9 mph - N/A   Clear
9:35 AM 53.6 °F - 32.0 °F 44% 30.01 in 10.0 mi West 4.6 mph - N/A   Clear
9:55 AM 53.6 °F - 33.8 °F 47% 30.01 in 10.0 mi WNW 9.2 mph - N/A   Clear
10:15 AM 55.4 °F - 33.8 °F 44% 30.01 in 10.0 mi West 9.2 mph - N/A   Clear
10:35 AM 57.2 °F - 33.8 °F 41% 30.01 in 10.0 mi WNW 8.1 mph - N/A   Clear
10:55 AM 57.2 °F - 33.8 °F 41% 30.00 in 10.0 mi West 11.5 mph 16.1 mph N/A   Clear
11:15 AM 59.0 °F - 28.4 °F 31% 30.00 in 10.0 mi West 16.1 mph 29.9 mph N/A   Clear
11:35 AM 59.0 °F - 28.4 °F 31% 30.00 in 10.0 mi WNW 21.9 mph 28.8 mph N/A   Clear
11:55 AM 59.0 °F - 28.4 °F 31% 29.99 in 10.0 mi WNW 26.5 mph 31.1 mph N/A   Clear
12:15 PM 59.0 °F - 28.4 °F 31% 29.99 in 10.0 mi West 16.1 mph 29.9 mph N/A   Clear
12:35 PM 59.0 °F - 28.4 °F 31% 30.00 in 10.0 mi WNW 17.3 mph 25.3 mph N/A   Clear
12:55 PM 57.2 °F - 28.4 °F 33% 29.99 in 10.0 mi WNW 13.8 mph 28.8 mph N/A   Clear
1:15 PM 57.2 °F - 28.4 °F 33% 30.00 in 10.0 mi West 17.3 mph 31.1 mph N/A   Clear
1:35 PM 57.2 °F - 28.4 °F 33% 30.00 in 10.0 mi WNW 12.7 mph 28.8 mph N/A   Scattered Clouds
1:55 PM 57.2 °F - 28.4 °F 33% 30.01 in 10.0 mi NW 19.6 mph 26.5 mph N/A   Partly Cloudy
2:15 PM 57.2 °F - 28.4 °F 33% 30.02 in 10.0 mi NNW 10.4 mph 27.6 mph N/A   Partly Cloudy
2:35 PM 57.2 °F - 28.4 °F 33% 30.03 in 10.0 mi NW 8.1 mph 20.7 mph N/A   Mostly Cloudy
2:55 PM 55.4 °F - 26.6 °F 33% 30.05 in 10.0 mi WNW 16.1 mph 20.7 mph N/A   Mostly Cloudy
3:15 PM 55.4 °F - 28.4 °F 36% 30.06 in 10.0 mi NW 9.2 mph 18.4 mph N/A   Mostly Cloudy
3:35 PM 55.4 °F - 28.4 °F 36% 30.07 in 10.0 mi NW 13.8 mph 25.3 mph N/A   Mostly Cloudy
3:55 PM 53.6 °F - 26.6 °F 35% 30.09 in 10.0 mi NW 20.7 mph 28.8 mph N/A   Partly Cloudy
4:15 PM 51.8 °F - 26.6 °F 38% 30.10 in 10.0 mi NW 15.0 mph 20.7 mph N/A   Clear
4:35 PM 51.8 °F - 24.8 °F 35% 30.12 in 10.0 mi WNW 17.3 mph 29.9 mph N/A   Clear
4:55 PM 48.2 °F - 24.8 °F 40% 30.13 in 10.0 mi NW 13.8 mph 31.1 mph N/A   Clear
5:15 PM 48.2 °F - 24.8 °F 40% 30.14 in 10.0 mi WNW 19.6 mph 24.2 mph N/A   Clear
5:35 PM 46.4 °F 40.1 °F 24.8 °F 43% 30.16 in 10.0 mi WNW 15.0 mph 28.8 mph N/A   Clear
5:55 PM 46.4 °F 40.7 °F 24.8 °F 43% 30.18 in 10.0 mi WNW 12.7 mph 28.8 mph N/A   Clear
6:15 PM 46.4 °F 42.9 °F 24.8 °F 43% 30.19 in 10.0 mi WNW 6.9 mph 17.3 mph N/A   Clear
6:35 PM 46.4 °F 41.9 °F 24.8 °F 43% 30.20 in 10.0 mi WNW 9.2 mph - N/A   Mostly Cloudy
6:55 PM 46.4 °F 40.7 °F 24.8 °F 43% 30.21 in 10.0 mi WNW 12.7 mph 18.4 mph N/A   Overcast
7:15 PM 46.4 °F 41.9 °F 24.8 °F 43% 30.22 in 10.0 mi WNW 9.2 mph 19.6 mph N/A   Overcast
7:35 PM 46.4 °F 41.9 °F 23.0 °F 40% 30.22 in 10.0 mi West 9.2 mph - N/A   Overcast
7:55 PM 46.4 °F 42.9 °F 23.0 °F 40% 30.22 in 10.0 mi WNW 6.9 mph - N/A   Overcast
8:15 PM 46.4 °F 41.1 °F 24.8 °F 43% 30.23 in 10.0 mi WNW 11.5 mph - N/A   Overcast
8:35 PM 46.4 °F 41.1 °F 24.8 °F 43% 30.23 in 10.0 mi WNW 11.5 mph - N/A   Overcast
8:55 PM 46.4 °F 40.1 °F 24.8 °F 43% 30.23 in 10.0 mi WNW 15.0 mph 25.3 mph N/A   Overcast
9:15 PM 44.6 °F 38.4 °F 24.8 °F 46% 30.23 in 10.0 mi WNW 12.7 mph - N/A   Scattered Clouds
9:35 PM 44.6 °F 39.7 °F 24.8 °F 46% 30.23 in 10.0 mi WNW 9.2 mph 18.4 mph N/A   Clear
9:55 PM 44.6 °F 40.7 °F 24.8 °F 46% 30.24 in 10.0 mi West 6.9 mph 16.1 mph N/A   Clear
10:15 PM 44.6 °F 41.4 °F 24.8 °F 46% 30.24 in 10.0 mi West 5.8 mph - N/A   Clear
10:35 PM 42.8 °F 40.1 °F 24.8 °F 49% 30.24 in 10.0 mi West 4.6 mph - N/A   Clear
10:55 PM 42.8 °F 38.6 °F 24.8 °F 49% 30.25 in 10.0 mi West 6.9 mph - N/A   Clear
11:15 PM 41.0 °F 35.8 °F 24.8 °F 53% 30.25 in 10.0 mi WNW 8.1 mph - N/A   Clear
11:35 PM 39.2 °F 34.2 °F 24.8 °F 56% 30.25 in 10.0 mi West 6.9 mph - N/A   Clear
11:55 PM 41.0 °F 37.1 °F 24.8 °F 53% 30.26 in 10.0 mi West 5.8 mph - N/A   Clear